Location: Barruelo
(41.2448°N, 3.8231°W)
Time: 04:05:55
(UTC+00:00)

Helios 1A Rocket - Pass Details

Date: 11 December 2025
Orbit: 433 x 443 km, 98.3° (Epoch: 13 January)

Event Time Altitude Azimuth Distance (km) Brightness Sun altitude
Exits shadow 17:47:17 11° 108° (ESE) 1,548 4.7 -11.2°
Drops below altitude 10° 17:47:33 10° 113° (ESE) 1,580 4.7 -11.2°
Enters shadow 18:56:09 -43° 12° (NNE) 9,295 9.1 -23.6°
